Volver al catálogo

STARLINK-35105

ActivoComunicacionesSSO
NORAD 65543·PAYLOAD·🇺🇸 United States

Lanzado Sep 6, 2025 desde Cape Canaveral Space Force Station

Loading…

Próximos Pases (próximas 24 horas)

TLE

ActualizadoSource: CelesTrak SupGP

Época: Sep 15, 2026, 03:09 UTC

1 65543C 25200Z   26258.13173611  .00074106  00000+0  22985-2 0  2581
2 65543  97.2849 324.5900 0000926 100.3472  59.8330 15.33428373    19

Sigue STARLINK-35105 en tiempo real con AllMySat

Download on the App Store